[[{"header":{"parameterUnit":"m.s-1","parameterCategory":2,"la1":30.2991,"la2":30.254,"lo1":-89.0895,"lo2":-89.0444,"dy":0.0017,"dx":0.0017,"nx":28,"ny":28,"refTime":"2024-07-30T03:00:00:Z","depth":"0","parameterNumber":2,"parameterNumberName":"U-component_of_CURRENTS"},"data":[0,0,0,0,0,0,0,0,0,0,0,0,0,0,0,0,0,0,0,0,0,0,0,0,0,0,0,0,0,0,0,0,0,0,0,0,0,0,0,0,0,0,0,0,0,0,0,0,0,0,0,0,0,0,0,0,0,0,0.5248,0.5253,0,0.5469,0.5469,0.5469,0.5486,0.5486,0.5487,0.5487,0.5453,0.5451,0.545,0,0,0,0,0,0,0,0,0,0,0,0,0,0.4586,0.4597,0.5248,0.5253,0.5259,0.5469,0.5469,0.5469,0.5486,0.5487,0.5487,0.5488,0.5453,0.5452,0.545,0,0,0,0,0,0,0,0,0,0,0,0,0,0.4817,0.46,0.5247,0.5316,0.5326,0.5469,0.5469,0.5469,0.5486,0.5487,0.5487,0.5488,0.5454,0.5452,0.545,0.5424,0,0,0.5444,0.5443,0,0,0,0,0,0,0,0,0.4804,0.4838,0.53,0.5312,0.5324,0.5478,0.5225,0.5452,0.5486,0.5392,0.5487,0.5488,0.5457,0.5455,0.5454,0.5422,0.5421,0.5443,0.5442,0.5441,0.5441,0,0,0,0,0,0,0,0.4788,0.4827,0.5303,0.5307,0.5322,0.5251,0.5283,0.5265,0.5389,0.54,0.541,0.5484,0.5458,0.5456,0.5453,0.542,0.5443,0.5442,0.544,0.544,0.5369,0.5369,0,0,0,0,0,0,0.484,0.4815,0.5297,0.5313,0.5096,0.5265,0.53,0.5402,0.5395,0.5406,0.5484,0.5485,0.5459,0.5456,0.5452,0.5404,0.5441,0.5439,0.5438,0.537,0.5369,0.5368,0,0,0,0,0,0,0.4825,0.4881,0.5289,0.509,0.5141,0.5282,0.5392,0.5407,0.5417,0.5467,0.5466,0.5484,0.546,0.5455,0.5425,0.5404,0.5439,0.5437,0.5371,0.537,0.5369,0.5319,0,0,0,0,0,0,0.4805,0.4874,0.4911,0.5096,0.5156,0.5346,0.5396,0.5412,0.5477,0.5479,0.5467,0.5465,0.546,0.5428,0.5423,0.5402,0.5435,0.5371,0.537,0.5369,0.5322,0.5317,0.5312,0,0,0,0,0,0.478,0.4855,0.4911,0.4969,0.5222,0.5349,0.5365,0.5443,0.5476,0.5453,0.546,0.5465,0.5418,0.5425,0.542,0.5397,0.5372,0.5371,0.5369,0.5324,0.5318,0.5312,0,0,0,0,0,0,0.4564,0.4874,0.4937,0.5095,0.5202,0.5363,0.5367,0.5443,0.5433,0.5429,0.5448,0.5444,0.5422,0.5413,0.5422,0.5376,0.5399,0.5396,0.5366,0.536,0.5356,0.5351,0.5433,0,0,0,0,0,0.455,0.468,0.4922,0.5016,0.5082,0.5216,0.5268,0.5343,0.5406,0.5404,0.5407,0.5407,0.541,0.5388,0.5384,0.534,0.5346,0.5326,0.5321,0.5317,0.5311,0.5313,0.5308,0.5363,0.5363,0.5363,0,0,0.4486,0.4673,0.4739,0.4975,0.5054,0.5107,0.5237,0.5329,0.5349,0.5398,0.5359,0.5394,0.5402,0.5368,0.5355,0.5352,0.5302,0.5315,0.5312,0.5308,0.5311,0.5305,0.5301,0.5362,0.5363,0.5363,0,0,0.4407,0.4588,0.4653,0.4745,0.4926,0.5019,0.5052,0.5211,0.5247,0.5264,0.531,0.5338,0.5308,0.5325,0.5331,0.5296,0.5294,0.5285,0.5231,0.5233,0.5229,0.5225,0.5212,0.5207,0.5261,0.5261,0.5261,0,0.429,0.4469,0.4662,0.4721,0.4796,0.4973,0.5006,0.5061,0.5173,0.5186,0.5234,0.5255,0.5295,0.5271,0.5284,0.5287,0.5272,0.5251,0.5227,0.5223,0.522,0.5208,0.5204,0.5258,0.5259,0.5259,0.5259,0,0.4273,0.4382,0.4413,0.4563,0.4622,0.4701,0.485,0.4875,0.4966,0.5031,0.5059,0.5137,0.5149,0.5181,0.5232,0.5221,0.5214,0.5238,0.524,0.5211,0.52,0.5197,0.5255,0.5256,0.5257,0.5257,0,0,0.4124,0.4364,0.437,0.4423,0.4582,0.4647,0.4652,0.4744,0.4781,0.4839,0.4884,0.4932,0.5006,0.5022,0.5099,0.5127,0.514,0.517,0.5171,0.5155,0.5113,0.4875,0.4848,0.5144,0.5143,0.5143,0.5109,0,0.4049,0.4162,0.4287,0.4311,0.4389,0.4508,0.451,0.4578,0.468,0.4745,0.4834,0.4885,0.4931,0.4989,0.5014,0.515,0.5128,0.5145,0.5146,0.5146,0.4935,0.4835,0.4616,0.4545,0.5106,0.5105,0.5105,0,0.4022,0.4118,0.4174,0.4295,0.4328,0.4321,0.4412,0.4442,0.4534,0.4605,0.464,0.475,0.4811,0.4899,0.4964,0.4962,0.5014,0.5093,0.5093,0.4883,0.4898,0.4668,0.4518,0.4463,0.5099,0.51,0.51,0,0.3943,0.4048,0.4109,0.4147,0.4272,0.4264,0.4295,0.4372,0.4406,0.4513,0.4547,0.4632,0.4685,0.4768,0.4879,0.4939,0.4955,0.5059,0.4855,0.4841,0.4659,0.4626,0.445,0.5052,0.5053,0.5053,0.5053,0,0.3932,0.3974,0.4069,0.4115,0.411,0.4193,0.42,0.4247,0.4323,0.432,0.445,0.4472,0.4653,0.4692,0.4826,0.4762,0.4861,0.4805,0.4793,0.463,0.4596,0.4546,0.4556,0.5051,0.5052,0.5052,0.5052,0,0.3908,0.3991,0.4034,0.4102,0.4101,0.4084,0.4103,0.4124,0.4169,0.4189,0.4199,0.4319,0.4327,0.4442,0.4591,0.4611,0.4516,0.46,0.4371,0.4328,0.4105,0.412,0.3781,0.3688,0.4418,0.4412,0.4406,0,0.3967,0.3984,0.3988,0.3978,0.4008,0.3991,0.3987,0.4029,0.4033,0.4066,0.406,0.4071,0.404,0.4087,0.4137,0.4178,0.4189,0.3997,0.4072,0.399,0.4005,0.3936,0.3883,0.3842,0.3833,0.3825,0.3819,0,0.4018,0.3973,0.3995,0.3933,0.3905,0.3869,0.3849,0.3821,0.3846,0.382,0.3754,0.3736,0.37,0.362,0.3613,0.3664,0.3785,0.3831,0.3824,0.3553,0.3392,0.333,0.3985,0.3748,0.3755,0.376,0.3764,0.3767,0.4025,0.3982,0.3941,0.3845,0.3818,0.3719,0.3617,0.3602,0.3517,0.339,0.3466,0.3313,0.3283,0.3237,0.3225,0.3101,0.3229,0.3125,0.3162,0.311,0.2935,0.3382,0.3072,0.3075,0.3078,0.308,0.3082,0,0.3969,0.3907,0.3858,0.3711,0.3588,0.3601,0.3497,0.3345,0.3158,0.3114,0.2982,0.2833,0.2705,0.2704,0.2626,0.2532,0.2501,0.2485,0.2426,0.2427,0.2893,0.2785,0.2298,0.2298,0.2298,0.2299,0.2299,0.2299,0.396,0.3838,0.3738,0.3479,0.3377,0.3128,0.3015,0.2843,0.2748,0.2486,0.2348,0.2332,0.241,0.2352,0.2231,0.2169,0.2113,0.189,0.2012,0.2456,0.2524,0.2589,0.2489,0.1949,0.1949,0.1447,0.1443,0.144]},{"header":{"parameterUnit":"m.s-1","parameterCategory":2,"la1":30.2991,"la2":30.254,"lo1":-89.0895,"lo2":-89.0444,"dy":0.0017,"dx":0.0017,"nx":28,"ny":28,"refTime":"2024-07-30T03:00:00:Z","depth":"0","parameterNumber":3,"parameterNumberName":"V-component_of_CURRENTS"},"data":[0,0,0,0,0,0,0,0,0,0,0,0,0,0,0,0,0,0,0,0,0,0,0,0,0,0,0,0,0,0,0,0,0,0,0,0,0,0,0,0,0,0,0,0,0,0,0,0,0,0,0,0,0,0,0,0,0,0,-0.0134,-0.0135,0,-0.0179,-0.0179,-0.0179,-0.017,-0.017,-0.017,-0.017,-0.0169,-0.0169,-0.0169,0,0,0,0,0,0,0,0,0,0,0,0,0,0.0061,0.0058,-0.0133,-0.0135,-0.0136,-0.0179,-0.0179,-0.0179,-0.017,-0.017,-0.017,-0.017,-0.0169,-0.0169,-0.0169,0,0,0,0,0,0,0,0,0,0,0,0,0,0.0001,0.0056,-0.0133,-0.0144,-0.0147,-0.0179,-0.0179,-0.0179,-0.017,-0.017,-0.017,-0.0171,-0.0169,-0.0169,-0.0169,-0.0166,0,0,-0.0169,-0.0168,0,0,0,0,0,0,0,0,0.0004,-0.0005,-0.0141,-0.0144,-0.0146,-0.0178,-0.0111,-0.0176,-0.017,-0.0151,-0.017,-0.0171,-0.0174,-0.0173,-0.0169,-0.0166,-0.0166,-0.0169,-0.0168,-0.0168,-0.0168,0,0,0,0,0,0,0,0.0008,-0.0003,-0.0142,-0.0143,-0.0146,-0.0114,-0.0122,-0.0122,-0.0153,-0.0153,-0.0155,-0.0175,-0.0174,-0.0169,-0.0169,-0.0166,-0.0169,-0.0168,-0.0168,-0.0168,-0.0146,-0.0146,0,0,0,0,0,0,-0.0012,0.0,-0.0141,-0.0144,-0.0081,-0.0118,-0.0127,-0.016,-0.0154,-0.0157,-0.0175,-0.0175,-0.0169,-0.0169,-0.0169,-0.0142,-0.0168,-0.0168,-0.0168,-0.0147,-0.0146,-0.0146,0,0,0,0,0,0,-0.0007,-0.0024,-0.0139,-0.0079,-0.0093,-0.0123,-0.0159,-0.0161,-0.016,-0.0173,-0.0173,-0.0174,-0.0169,-0.0169,-0.0159,-0.0143,-0.0168,-0.0168,-0.0148,-0.0147,-0.0146,-0.0103,0,0,0,0,0,0,-0.0002,-0.0022,-0.0028,-0.0081,-0.0098,-0.0145,-0.016,-0.0162,-0.0177,-0.0177,-0.0172,-0.0172,-0.0169,-0.0159,-0.0159,-0.0143,-0.0168,-0.0148,-0.0147,-0.0146,-0.0105,-0.0101,-0.0098,0,0,0,0,0,0.0006,0.0009,-0.0029,-0.0045,-0.0114,-0.0146,-0.0148,-0.0163,-0.0177,-0.0164,-0.0166,-0.0172,-0.0153,-0.0159,-0.0158,-0.0142,-0.0149,-0.0147,-0.0146,-0.0107,-0.0102,-0.0098,0,0,0,0,0,0,0.0105,0.0006,-0.0034,-0.006,-0.0104,-0.0148,-0.0129,-0.0165,-0.0157,-0.0156,-0.0165,-0.0164,-0.015,-0.0155,-0.0161,-0.0134,-0.0153,-0.0151,-0.0123,-0.0118,-0.0114,-0.0064,-0.0168,0,0,0,0,0,0.0111,0.0089,-0.0006,-0.0016,-0.004,-0.0091,-0.0102,-0.0133,-0.0151,-0.0147,-0.0154,-0.0154,-0.0145,-0.0139,-0.0135,-0.012,-0.0109,-0.0111,-0.0107,-0.0103,-0.0063,-0.0049,-0.0039,-0.0142,-0.0142,-0.0142,0,0,0.015,0.0093,0.0082,0.0004,-0.0022,-0.0031,-0.0093,-0.0115,-0.0111,-0.0149,-0.012,-0.0143,-0.014,-0.0119,-0.0114,-0.012,-0.0072,-0.0102,-0.0099,-0.0059,-0.0046,-0.0036,-0.0027,-0.0141,-0.0142,-0.0142,0,0,0.0231,0.016,0.017,0.0134,0.0066,0.0023,0.0009,-0.0055,-0.0066,-0.0074,-0.0091,-0.01,-0.0096,-0.0084,-0.0078,-0.0051,-0.0056,-0.0064,0.0004,0.0016,0.0025,0.0033,0.0048,0.0057,-0.0058,-0.0057,-0.0057,0,0.0285,0.0265,0.0177,0.018,0.0171,0.0049,0.0069,0.0035,-0.0016,-0.0003,-0.0054,-0.0041,-0.0068,-0.0012,-0.0014,-0.0038,-0.0032,-0.0016,0.0023,0.0031,0.0039,0.0052,0.0062,-0.0055,-0.0056,-0.0056,-0.0056,0,0.036,0.0353,0.0365,0.032,0.0301,0.0293,0.021,0.0196,0.0141,0.0104,0.0116,0.0065,0.0083,0.0052,0.0025,0.0071,0.0056,0.0021,0.0015,0.0053,0.0063,0.0073,-0.0052,-0.0053,-0.0054,-0.0054,0,0,0.0439,0.0423,0.0424,0.0449,0.0368,0.0367,0.0369,0.0349,0.0382,0.0293,0.0351,0.0295,0.0239,0.0243,0.0187,0.018,0.0201,0.0125,0.0125,0.0149,0.0237,0.0186,0.0191,0.0169,0.0171,0.0173,0.0218,0,0.0523,0.0588,0.0541,0.0609,0.0632,0.0553,0.0584,0.0551,0.0501,0.0519,0.0435,0.0452,0.0317,0.0322,0.0286,0.0232,0.0231,0.0194,0.0192,0.0193,0.0149,0.0202,0.0201,0.0239,0.0227,0.0229,0.023,0,0.0582,0.0627,0.0718,0.0772,0.0777,0.0803,0.0838,0.0842,0.0818,0.0788,0.0752,0.0673,0.0641,0.0516,0.0444,0.0425,0.0347,0.0289,0.0288,0.0244,0.016,0.0201,0.0256,0.0167,0.0244,0.0243,0.0242,0,0.0676,0.0738,0.0831,0.0843,0.0881,0.0935,0.0949,0.094,0.0966,0.0961,0.0977,0.0901,0.0873,0.0765,0.0573,0.0529,0.0499,0.0426,0.0318,0.0313,0.032,0.0311,0.0303,0.0413,0.0413,0.0412,0.0412,0,0.0755,0.083,0.0895,0.0949,0.1071,0.106,0.1165,0.1167,0.1188,0.1234,0.112,0.1134,0.0932,0.0848,0.0677,0.0523,0.0575,0.0366,0.0334,0.033,0.0323,0.0248,0.0188,0.0414,0.0414,0.0413,0.0413,0,0.0833,0.0868,0.0986,0.1083,0.1115,0.1204,0.128,0.1345,0.1359,0.1419,0.1425,0.1333,0.1216,0.1009,0.0847,0.0669,0.0475,0.0466,0.0468,0.0435,0.023,0.0172,0.0153,0.0121,0.0379,0.0378,0.0377,0,0.0889,0.0959,0.1087,0.1152,0.1201,0.1315,0.1378,0.1418,0.1469,0.1525,0.1558,0.1489,0.1405,0.1149,0.0852,0.0599,0.0475,0.0444,0.0352,0.0254,0.0166,0.0121,0.0093,0.0376,0.0376,0.0375,0.0375,0,0.1006,0.1043,0.1133,0.1248,0.1339,0.1435,0.1528,0.1593,0.1637,0.1694,0.173,0.1695,0.1449,0.1176,0.0836,0.0644,0.0388,0.0424,0.0338,0.0193,0.0135,0.0076,0.0307,0.037,0.037,0.0371,0.0371,0.0371,0.1095,0.1149,0.1236,0.1334,0.1428,0.1512,0.1575,0.1663,0.1749,0.18,0.1811,0.1766,0.1463,0.0982,0.0743,0.0341,0.0336,0.0207,0.0157,0.0129,0.0069,0.0284,0.0287,0.0287,0.0287,0.0287,0.0287,0,0.1169,0.1202,0.1305,0.1396,0.1466,0.1512,0.1629,0.1672,0.1747,0.1824,0.1838,0.1675,0.1298,0.0925,0.0397,0.0131,0.0045,-0.0002,-0.0047,-0.0056,0.0161,0.0128,0.0078,0.0078,0.0078,0.0078,0.0079,0.0079,0.1217,0.1273,0.1283,0.1379,0.144,0.1501,0.1549,0.1636,0.1705,0.1741,0.1726,0.1715,0.1489,0.0632,0.0064,-0.0074,-0.0209,-0.0267,-0.0323,-0.0174,-0.0158,-0.0143,-0.0186,-0.0301,-0.0302,-0.0502,-0.0504,-0.0506]}],[{"header":{"parameterUnit":"m.s-1","parameterCategory":2,"la1":30.2991,"la2":30.254,"lo1":-89.0895,"lo2":-89.0444,"dy":0.0017,"dx":0.0017,"nx":28,"ny":28,"refTime":"2024-07-30T03:00:00:Z","depth":"2","parameterNumber":2,"parameterNumberName":"U-component_of_CURRENTS"},"data":[0,0,0,0,0,0,0,0,0,0,0,0,0,0,0,0,0,0,0,0,0,0,0,0,0,0,0,0,0,0,0,0,0,0,0,0,0,0,0,0,0,0,0,0,0,0,0,0,0,0,0,0,0,0,0,0,0,0,0.2798,0.2798,0,0.2859,0.286,0.2861,0.2879,0.2878,0.2877,0.2876,0.2993,0.2997,0.3001,0,0,0,0,0,0,0,0,0,0,0,0,0,0.2738,0.2739,0.2798,0.2798,0.2798,0.2858,0.286,0.2862,0.2879,0.2878,0.2876,0.2875,0.2991,0.2996,0.3001,0,0,0,0,0,0,0,0,0,0,0,0,0,0.2785,0.274,0.2798,0.2808,0.2809,0.2858,0.286,0.2862,0.2879,0.2878,0.2876,0.2875,0.299,0.2996,0.3002,0.3072,0,0,0.3021,0.3023,0,0,0,0,0,0,0,0,0.2783,0.2789,0.2807,0.2808,0.2809,0.2852,0.2881,0.2932,0.288,0.2861,0.2876,0.2874,0.2947,0.2957,0.2982,0.3078,0.3083,0.3021,0.3025,0.3028,0.3029,0,0,0,0,0,0,0,0.2779,0.2786,0.2831,0.2807,0.2808,0.2822,0.2828,0.2892,0.292,0.2863,0.2862,0.2856,0.2949,0.2976,0.2985,0.3085,0.3021,0.3027,0.303,0.3033,0.3328,0.3332,0,0,0,0,0,0,0.2755,0.2783,0.2829,0.2832,0.2782,0.2824,0.2831,0.2847,0.2918,0.2924,0.2858,0.2857,0.2967,0.2978,0.2989,0.3146,0.3028,0.3033,0.3037,0.3324,0.3329,0.3333,0,0,0,0,0,0,0.2754,0.276,0.2826,0.2801,0.2809,0.2826,0.2844,0.2849,0.2908,0.2912,0.2921,0.2914,0.2966,0.2981,0.3094,0.3147,0.3036,0.3042,0.3319,0.3325,0.3331,0.3415,0,0,0,0,0,0,0.2753,0.276,0.2805,0.28,0.2809,0.2843,0.2845,0.2851,0.29,0.2901,0.2963,0.297,0.2966,0.3086,0.3101,0.3154,0.3047,0.3313,0.3322,0.3329,0.3407,0.3423,0.3437,0,0,0,0,0,0.2751,0.2782,0.2807,0.2814,0.2857,0.2842,0.285,0.2861,0.2905,0.2916,0.3001,0.297,0.3144,0.3095,0.3112,0.3167,0.331,0.3319,0.3328,0.34,0.342,0.3437,0,0,0,0,0,0,0.273,0.2786,0.2813,0.285,0.2848,0.2841,0.2866,0.2896,0.2977,0.3019,0.3036,0.305,0.3169,0.3173,0.3118,0.3279,0.3218,0.3231,0.3266,0.3285,0.33,0.3304,0.3052,0,0,0,0,0,0.2761,0.2829,0.2833,0.2859,0.2869,0.2894,0.2912,0.2931,0.2976,0.3012,0.3075,0.3152,0.3219,0.3254,0.3317,0.3414,0.3408,0.346,0.3475,0.3487,0.3506,0.3565,0.3586,0.3363,0.3363,0.3363,0,0,0.2756,0.2795,0.2831,0.2867,0.2881,0.2919,0.2902,0.2938,0.3005,0.3018,0.3171,0.3223,0.3264,0.3368,0.3418,0.3376,0.3546,0.3499,0.3509,0.3521,0.3577,0.3598,0.3616,0.337,0.3369,0.3368,0,0,0.2754,0.2817,0.2874,0.2895,0.2936,0.2963,0.2985,0.304,0.3096,0.3229,0.3266,0.336,0.3474,0.3505,0.3532,0.3678,0.3635,0.3696,0.3763,0.3821,0.3838,0.3854,0.3851,0.3866,0.3688,0.3689,0.3689,0,0.277,0.2822,0.2871,0.2915,0.2945,0.2992,0.3036,0.3106,0.3209,0.3279,0.3289,0.3496,0.3536,0.3636,0.3691,0.3709,0.3717,0.368,0.3836,0.3852,0.3866,0.386,0.3875,0.3694,0.3693,0.3693,0.3692,0,0.279,0.2855,0.2871,0.2981,0.302,0.3056,0.3138,0.3241,0.3344,0.3416,0.3572,0.3637,0.3736,0.3769,0.3783,0.3907,0.3869,0.3853,0.3777,0.3893,0.3879,0.3893,0.3701,0.3699,0.3698,0.3697,0,0,0.2784,0.2884,0.2899,0.2948,0.3068,0.3087,0.3235,0.3349,0.3435,0.3587,0.3685,0.3842,0.3881,0.3917,0.3934,0.3995,0.4106,0.3981,0.3982,0.3954,0.4202,0.388,0.3864,0.4118,0.4122,0.4125,0.414,0,0.2796,0.2864,0.2942,0.3034,0.3066,0.3186,0.3272,0.3406,0.3536,0.3656,0.377,0.3858,0.3928,0.3946,0.405,0.4083,0.4153,0.4101,0.4116,0.4115,0.3796,0.3873,0.3637,0.3605,0.4153,0.4156,0.4157,0,0.2782,0.2845,0.2916,0.3025,0.3053,0.3134,0.3293,0.3389,0.3575,0.3656,0.3815,0.389,0.4029,0.4039,0.4208,0.4173,0.4226,0.4248,0.4248,0.393,0.382,0.3587,0.3609,0.418,0.4178,0.4176,0.4175,0,0.269,0.2817,0.2876,0.2921,0.3063,0.3143,0.3229,0.3399,0.3481,0.3651,0.3692,0.3896,0.3921,0.4088,0.415,0.421,0.4262,0.4333,0.4098,0.4074,0.3863,0.3811,0.447,0.447,0.447,0.447,0.447,0,0.2645,0.2708,0.2837,0.288,0.296,0.3065,0.317,0.3284,0.3417,0.3482,0.3667,0.3704,0.394,0.3998,0.4134,0.4092,0.4251,0.4115,0.4064,0.3878,0.383,0.4327,0.431,0.447,0.447,0.447,0.447,0,0.2564,0.2629,0.2755,0.2909,0.2918,0.3012,0.3132,0.3191,0.3286,0.3369,0.3403,0.3572,0.3625,0.3762,0.3928,0.3956,0.4001,0.3943,0.3653,0.3566,0.3812,0.3801,0.378,0.3769,0.376,0.3752,0.3745,0,0.2555,0.256,0.2762,0.2802,0.2894,0.2982,0.2991,0.3127,0.3171,0.3269,0.3271,0.3333,0.3346,0.3383,0.3444,0.3513,0.371,0.3275,0.3361,0.3793,0.3747,0.375,0.3751,0.3142,0.3131,0.3122,0.3115,0,0.2556,0.2631,0.2723,0.2774,0.2839,0.2894,0.2919,0.2909,0.3013,0.3023,0.3003,0.3013,0.3016,0.2936,0.2909,0.2966,0.3253,0.3086,0.3638,0.3293,0.3175,0.3134,0.3161,0.3035,0.3043,0.3049,0.3053,0.3056,0.2603,0.2649,0.2711,0.2737,0.2782,0.275,0.2703,0.2697,0.2674,0.2617,0.2715,0.2619,0.2652,0.251,0.2444,0.2431,0.2721,0.2705,0.2743,0.2788,0.2651,0.2516,0.2227,0.223,0.2233,0.2235,0.2237,0,0.2583,0.2582,0.2616,0.2647,0.2588,0.2667,0.2582,0.2474,0.2333,0.236,0.2305,0.2087,0.1982,0.204,0.1907,0.1891,0.2008,0.183,0.2012,0.2089,0.2159,0.2001,0.1399,0.1396,0.1394,0.1392,0,0,0.2597,0.2576,0.252,0.2392,0.238,0.2259,0.2176,0.2049,0.1997,0.185,0.1797,0.1914,0.1965,0.1659,0.1617,0.1482,0.1791,0.1428,0.2104,0.2396,0.2462,0.2658,0.2495,0,0,0,0,0]},{"header":{"parameterUnit":"m.s-1","parameterCategory":2,"la1":30.2991,"la2":30.254,"lo1":-89.0895,"lo2":-89.0444,"dy":0.0017,"dx":0.0017,"nx":28,"ny":28,"refTime":"2024-07-30T03:00:00:Z","depth":"2","parameterNumber":3,"parameterNumberName":"V-component_of_CURRENTS"},"data":[0,0,0,0,0,0,0,0,0,0,0,0,0,0,0,0,0,0,0,0,0,0,0,0,0,0,0,0,0,0,0,0,0,0,0,0,0,0,0,0,0,0,0,0,0,0,0,0,0,0,0,0,0,0,0,0,0,0,0.0378,0.0379,0,0.0394,0.0394,0.0393,0.0319,0.0318,0.0316,0.0315,0.0167,0.0165,0.0162,0,0,0,0,0,0,0,0,0,0,0,0,0,0.0255,0.0258,0.0378,0.0379,0.038,0.0394,0.0394,0.0393,0.032,0.0318,0.0316,0.0314,0.0168,0.0165,0.0162,0,0,0,0,0,0,0,0,0,0,0,0,0,0.0287,0.0258,0.0378,0.035,0.0348,0.0394,0.0393,0.0393,0.032,0.0318,0.0315,0.0313,0.0169,0.0165,0.0161,0.0183,0,0,0.015,0.0148,0,0,0,0,0,0,0,0,0.0285,0.0291,0.0353,0.0352,0.035,0.0359,0.0297,0.0317,0.032,0.0323,0.0315,0.0312,0.0222,0.0214,0.0214,0.0176,0.017,0.0149,0.0147,0.0146,0.0144,0,0,0,0,0,0,0,0.0283,0.029,0.0377,0.0355,0.0353,0.0327,0.0329,0.03,0.0277,0.0323,0.0319,0.0333,0.0219,0.0218,0.021,0.0167,0.015,0.0146,0.0144,0.0142,0.0077,0.0078,0,0,0,0,0,0,0.03,0.0288,0.0377,0.0378,0.032,0.0332,0.0333,0.0352,0.028,0.0271,0.0335,0.033,0.0226,0.0214,0.0204,0.0167,0.0146,0.0142,0.014,0.0077,0.0077,0.0078,0,0,0,0,0,0,0.0298,0.0308,0.0376,0.0338,0.0346,0.0338,0.0359,0.0354,0.0332,0.0293,0.0278,0.0316,0.0224,0.0209,0.0166,0.0163,0.014,0.0137,0.0076,0.0077,0.0078,0.013,0,0,0,0,0,0,0.0294,0.0307,0.0311,0.034,0.0349,0.042,0.0362,0.0356,0.0349,0.0341,0.0273,0.0258,0.0221,0.0172,0.0162,0.0157,0.0134,0.0075,0.0076,0.0077,0.0127,0.0132,0.0137,0,0,0,0,0,0.029,0.0333,0.0312,0.0322,0.0361,0.0423,0.0425,0.0405,0.035,0.0368,0.0299,0.0259,0.0171,0.017,0.0158,0.0151,0.0075,0.0076,0.0077,0.0125,0.0131,0.0137,0,0,0,0,0,0,0.0282,0.0331,0.0308,0.036,0.0389,0.0413,0.0432,0.0402,0.0364,0.0331,0.0266,0.025,0.0215,0.018,0.018,0.0138,0.0117,0.0116,0.0157,0.0162,0.0167,0.017,0.0131,0,0,0,0,0,0.0284,0.0321,0.036,0.0395,0.0417,0.0411,0.0423,0.0407,0.0391,0.037,0.0311,0.0251,0.0219,0.0186,0.0158,0.0131,0.0115,0.012,0.0124,0.0128,0.0124,0.0126,0.0131,0.0082,0.0082,0.0082,0,0,0.0283,0.032,0.0333,0.0394,0.0409,0.0438,0.0412,0.0441,0.0426,0.0359,0.0302,0.0268,0.0219,0.0193,0.0173,0.0155,0.0133,0.013,0.0134,0.0127,0.0128,0.0133,0.0137,0.0083,0.0083,0.0082,0,0,0.0319,0.0343,0.0381,0.0413,0.0451,0.0457,0.0463,0.0469,0.0437,0.0399,0.0346,0.0315,0.0241,0.0222,0.0198,0.0212,0.0167,0.0191,0.0202,0.0205,0.0209,0.0212,0.0196,0.0197,0.0182,0.0183,0.0183,0,0.0306,0.0365,0.0401,0.0446,0.0473,0.0462,0.0496,0.0475,0.0446,0.043,0.0381,0.0304,0.0259,0.0246,0.0237,0.0223,0.0204,0.0184,0.0211,0.0214,0.0217,0.0199,0.02,0.0185,0.0185,0.0185,0.0184,0,0.0364,0.0402,0.0442,0.048,0.0513,0.0556,0.055,0.0531,0.0475,0.0449,0.0413,0.036,0.0319,0.03,0.0256,0.0257,0.0231,0.0228,0.0199,0.0225,0.0205,0.0205,0.0189,0.0188,0.0187,0.0187,0,0,0.0365,0.0458,0.0467,0.0505,0.0537,0.0588,0.056,0.0572,0.0575,0.0495,0.0495,0.0415,0.0388,0.036,0.0321,0.0299,0.0293,0.0255,0.0253,0.0241,0.0276,0.0216,0.0209,0.0287,0.0288,0.0288,0.0254,0,0.0393,0.0497,0.0518,0.0589,0.0654,0.0639,0.0647,0.0638,0.0602,0.0596,0.0523,0.0516,0.0411,0.041,0.0363,0.0327,0.0295,0.0301,0.025,0.0248,0.0194,0.0209,0.0243,0.0211,0.0253,0.0253,0.0253,0,0.0434,0.0517,0.0603,0.0697,0.0723,0.074,0.0783,0.0788,0.0763,0.0739,0.0684,0.0631,0.0573,0.0502,0.0401,0.0404,0.0331,0.0288,0.0286,0.0209,0.0188,0.0192,0.021,0.0253,0.0253,0.0253,0.0253,0,0.0473,0.057,0.0653,0.0682,0.0777,0.0792,0.0823,0.0828,0.0856,0.084,0.0848,0.0762,0.0734,0.0625,0.0457,0.0444,0.0353,0.0344,0.0219,0.0214,0.0223,0.0217,0.0285,0.0285,0.0285,0.0285,0.0285,0,0.0521,0.0586,0.0681,0.0743,0.0846,0.0875,0.0956,0.0966,0.0993,0.1038,0.0935,0.0931,0.076,0.0656,0.051,0.0342,0.0389,0.0217,0.0203,0.024,0.0236,0.0255,0.0253,0.0284,0.0284,0.0284,0.0284,0,0.0554,0.0607,0.0726,0.0841,0.0876,0.0953,0.1047,0.1102,0.1121,0.1168,0.1166,0.1068,0.0929,0.0736,0.0578,0.0424,0.0284,0.0215,0.0246,0.0234,0.0133,0.0133,0.01,0.0097,0.0095,0.0093,0.0092,0,0.0574,0.0647,0.0807,0.0876,0.0924,0.1032,0.1103,0.116,0.1204,0.1235,0.1251,0.1144,0.1036,0.0762,0.0519,0.0277,0.0243,0.0144,0.0123,0.0125,0.0115,0.0118,0.0121,0.0161,0.016,0.0159,0.0159,0,0.0644,0.0698,0.0811,0.0952,0.1037,0.1145,0.1229,0.1281,0.1333,0.136,0.1349,0.1282,0.1027,0.0778,0.045,0.0289,0.0183,0.0121,0.0147,0.0187,0.0176,0.0168,0.017,0.0153,0.0154,0.0154,0.0155,0.0155,0.0688,0.0771,0.0909,0.1025,0.1123,0.1209,0.1265,0.1334,0.1402,0.1413,0.1389,0.1293,0.1074,0.0635,0.038,0.0121,0.0134,0.0044,0.0049,0.0055,0.0053,0.0037,-0.0012,-0.0012,-0.0013,-0.0013,-0.0013,0,0.077,0.0853,0.0964,0.1093,0.116,0.1218,0.1316,0.1342,0.138,0.142,0.1395,0.1152,0.0914,0.0654,0.028,0.0049,0.0055,-0.0035,0.0043,0.005,0.0056,0.0057,-0.0009,-0.001,-0.001,-0.0011,0,0,0.0819,0.0935,0.0979,0.1084,0.115,0.1211,0.1248,0.1297,0.1335,0.1326,0.1293,0.1262,0.0979,0.0706,0.0417,0.0205,0.0171,0.0153,0.0176,0.031,0.0318,0.0128,0.014,0,0,0,0,0]}],[{"header":{"parameterUnit":"m.s-1","parameterCategory":2,"la1":30.2991,"la2":30.254,"lo1":-89.0895,"lo2":-89.0444,"dy":0.0017,"dx":0.0017,"nx":28,"ny":28,"refTime":"2024-07-30T03:00:00:Z","depth":"4","parameterNumber":2,"parameterNumberName":"U-component_of_CURRENTS"},"data":[0,0,0,0,0,0,0,0,0,0,0,0,0,0,0,0,0,0,0,0,0,0,0,0,0,0,0,0,0,0,0,0,0,0,0,0,0,0,0,0,0,0,0,0,0,0,0,0,0,0,0,0,0,0,0,0,0,0,0.0677,0.0677,0,0.0695,0.0696,0.0696,0.0718,0.0718,0.0718,0.0718,0.0746,0.0746,0.0747,0,0,0,0,0,0,0,0,0,0,0,0,0,0.0837,0.0833,0.0677,0.0677,0.0677,0.0695,0.0696,0.0696,0.0718,0.0718,0.0718,0.0718,0.0745,0.0746,0.0747,0,0,0,0,0,0,0,0,0,0,0,0,0,0.0805,0.0831,0.0677,0.0687,0.0688,0.0695,0.0696,0.0697,0.0718,0.0718,0.0718,0.0718,0.0745,0.0746,0.0747,0.0754,0,0,0.0751,0.0751,0,0,0,0,0,0,0,0,0.0807,0.08,0.0686,0.0686,0.0687,0.0701,0.0762,0.0715,0.0718,0.071,0.0718,0.0718,0.0729,0.0732,0.074,0.0756,0.0757,0.0751,0.0751,0.0752,0.0752,0,0,0,0,0,0,0,0.0809,0.08,0.0688,0.0686,0.0686,0.0751,0.0745,0.0754,0.0723,0.0711,0.0712,0.0708,0.073,0.0739,0.0741,0.0757,0.0751,0.0752,0.0752,0.0753,0.0827,0.0828,0,0,0,0,0,0,0.0789,0.0801,0.0687,0.0688,0.0744,0.0747,0.0741,0.07,0.0722,0.0725,0.0708,0.0709,0.0737,0.074,0.0742,0.0796,0.0752,0.0753,0.0754,0.0825,0.0827,0.0828,0,0,0,0,0,0,0.0792,0.0777,0.0687,0.0745,0.0738,0.0742,0.0697,0.07,0.0733,0.0719,0.0722,0.074,0.0737,0.074,0.0782,0.0795,0.0753,0.0754,0.0824,0.0826,0.0828,0.0875,0,0,0,0,0,0,0.0795,0.0777,0.0756,0.0742,0.0733,0.0707,0.0697,0.07,0.0727,0.0729,0.0747,0.0748,0.0737,0.0781,0.0783,0.0796,0.0755,0.0822,0.0825,0.0827,0.0872,0.0879,0.0884,0,0,0,0,0,0.0801,0.0762,0.0754,0.0741,0.0696,0.0708,0.0711,0.0719,0.0729,0.0749,0.0769,0.0749,0.0797,0.0784,0.0786,0.0799,0.0821,0.0824,0.0827,0.0869,0.0877,0.0884,0,0,0,0,0,0,0.0823,0.0759,0.0751,0.0694,0.0711,0.071,0.072,0.0737,0.077,0.0779,0.0775,0.0779,0.082,0.0809,0.0794,0.0828,0.0802,0.0805,0.0833,0.0841,0.0847,0.0911,0.0756,0,0,0,0,0,0.0814,0.0762,0.0746,0.0707,0.0713,0.0728,0.0739,0.0752,0.077,0.0786,0.0801,0.0815,0.083,0.0837,0.0851,0.0873,0.0894,0.0881,0.0887,0.0892,0.0947,0.0972,0.0985,0.0838,0.0838,0.0838,0,0,0.0815,0.077,0.0745,0.071,0.0718,0.074,0.0736,0.0759,0.0779,0.0783,0.0826,0.0847,0.0846,0.0874,0.0888,0.0866,0.0944,0.0896,0.09,0.0954,0.0976,0.0991,0.1004,0.084,0.0839,0.0839,0,0,0.0804,0.0752,0.0727,0.0735,0.0744,0.076,0.0775,0.0801,0.0814,0.0863,0.0866,0.0919,0.0929,0.0943,0.0945,0.0999,0.0984,0.0978,0.1052,0.1073,0.1086,0.1097,0.1136,0.1151,0.0969,0.0969,0.0969,0,0.083,0.0767,0.0735,0.0732,0.0742,0.0774,0.0797,0.0814,0.0857,0.0894,0.0883,0.0971,0.0969,0.1017,0.104,0.1016,0.103,0.1017,0.1082,0.1094,0.1105,0.1142,0.1158,0.0972,0.0971,0.0971,0.0971,0,0.0803,0.0781,0.0775,0.0768,0.0782,0.0808,0.0825,0.0885,0.0919,0.0946,0.1024,0.104,0.1103,0.1088,0.1087,0.1159,0.1145,0.1093,0.1064,0.1123,0.1158,0.1173,0.0976,0.0975,0.0974,0.0973,0,0,0.0821,0.077,0.0779,0.0796,0.0805,0.0833,0.0878,0.0947,0.1031,0.1058,0.1152,0.1182,0.1223,0.1234,0.1224,0.1252,0.1336,0.1219,0.1219,0.1263,0.1404,0.1317,0.1325,0.1281,0.1285,0.1287,0.1394,0,0.0841,0.0824,0.0798,0.085,0.0859,0.0907,0.0951,0.1019,0.109,0.1195,0.1215,0.1297,0.1251,0.1311,0.1326,0.1339,0.1382,0.1315,0.134,0.1343,0.126,0.1341,0.1297,0.1405,0.1409,0.1411,0.1413,0,0.0832,0.0828,0.0837,0.0894,0.0912,0.0979,0.1116,0.116,0.1286,0.1336,0.1423,0.1448,0.1515,0.1465,0.1514,0.1467,0.1474,0.1471,0.1472,0.14,0.1285,0.1336,0.1441,0.1439,0.1437,0.1435,0.1433,0,0.0839,0.0872,0.0878,0.0888,0.0951,0.1037,0.1125,0.1245,0.1304,0.1466,0.1547,0.1597,0.1657,0.1649,0.1645,0.1589,0.1703,0.1599,0.1536,0.1529,0.1552,0.1539,0.168,0.168,0.168,0.1679,0.1679,0,0.0831,0.087,0.0916,0.0935,0.1046,0.1084,0.1239,0.1347,0.1477,0.1558,0.1634,0.1696,0.1713,0.1756,0.1716,0.1684,0.1747,0.1604,0.1564,0.1567,0.1554,0.1563,0.1548,0.1683,0.1682,0.1682,0.1681,0,0.082,0.0816,0.0872,0.098,0.1038,0.1134,0.131,0.1412,0.1543,0.1664,0.1715,0.1807,0.1843,0.1859,0.1882,0.1782,0.176,0.1746,0.181,0.1762,0.1554,0.1541,0.1662,0.166,0.1659,0.1657,0.1656,0,0.0781,0.0798,0.0917,0.0974,0.1051,0.1198,0.1287,0.1436,0.1516,0.1691,0.1723,0.1852,0.1885,0.1856,0.1859,0.1822,0.1783,0.1781,0.163,0.1612,0.156,0.1549,0.1537,0.1654,0.1653,0.1653,0.1652,0,0.0777,0.0832,0.0907,0.0995,0.1108,0.1185,0.1339,0.1387,0.1522,0.1655,0.1711,0.1745,0.1808,0.1786,0.1825,0.1765,0.177,0.1763,0.1763,0.162,0.1602,0.155,0.1541,0.1647,0.1648,0.1648,0.1649,0,0.0803,0.0861,0.0943,0.1037,0.1131,0.1148,0.1233,0.132,0.1396,0.1578,0.1587,0.1694,0.1795,0.1761,0.1757,0.1739,0.1662,0.1571,0.1579,0.1586,0.1504,0.1466,0.1479,0,0,0,0,0,0.0807,0.0877,0.0966,0.1034,0.1113,0.1137,0.1237,0.1296,0.143,0.1438,0.1512,0.1555,0.1579,0.1618,0.1571,0.1683,0.1656,0.162,0.1552,0.1616,0.1623,0.1528,0,0,0,0,0,0,0.081,0.0909,0.0957,0.1003,0.1031,0.1072,0.1112,0.1191,0.1193,0.1341,0.1356,0.1471,0.1503,0.1601,0.155,0.1561,0.1485,0.1687,0.1683,0.1612,0.1618,0.1623,0.1528,0,0,0,0,0]},{"header":{"parameterUnit":"m.s-1","parameterCategory":2,"la1":30.2991,"la2":30.254,"lo1":-89.0895,"lo2":-89.0444,"dy":0.0017,"dx":0.0017,"nx":28,"ny":28,"refTime":"2024-07-30T03:00:00:Z","depth":"4","parameterNumber":3,"parameterNumberName":"V-component_of_CURRENTS"},"data":[0,0,0,0,0,0,0,0,0,0,0,0,0,0,0,0,0,0,0,0,0,0,0,0,0,0,0,0,0,0,0,0,0,0,0,0,0,0,0,0,0,0,0,0,0,0,0,0,0,0,0,0,0,0,0,0,0,0,0.0325,0.0325,0,0.0341,0.0341,0.0341,0.035,0.035,0.035,0.035,0.0313,0.0312,0.0311,0,0,0,0,0,0,0,0,0,0,0,0,0,0.0249,0.0251,0.0325,0.0325,0.0325,0.0341,0.0341,0.0341,0.035,0.035,0.035,0.035,0.0313,0.0312,0.0311,0,0,0,0,0,0,0,0,0,0,0,0,0,0.0273,0.0251,0.0324,0.0333,0.0335,0.0341,0.0341,0.0341,0.0349,0.035,0.035,0.0351,0.0314,0.0312,0.031,0.0292,0,0,0.0305,0.0304,0,0,0,0,0,0,0,0,0.0272,0.0276,0.0332,0.0333,0.0334,0.0345,0.03,0.0322,0.0349,0.0341,0.035,0.0351,0.032,0.0318,0.0318,0.029,0.0288,0.0305,0.0304,0.0303,0.0302,0,0,0,0,0,0,0,0.027,0.0275,0.0329,0.0332,0.0334,0.0319,0.0323,0.0304,0.0326,0.0342,0.0343,0.0349,0.032,0.0319,0.0317,0.0288,0.0305,0.0303,0.0302,0.0301,0.0223,0.0222,0,0,0,0,0,0,0.0276,0.0274,0.0328,0.0329,0.0306,0.032,0.0325,0.034,0.0327,0.0327,0.0348,0.0349,0.0322,0.0319,0.0315,0.0301,0.0303,0.0301,0.03,0.0224,0.0223,0.0222,0,0,0,0,0,0,0.0274,0.0281,0.0327,0.0303,0.0308,0.0322,0.0338,0.034,0.0355,0.0333,0.0331,0.0364,0.0322,0.0318,0.0305,0.0299,0.03,0.0299,0.0225,0.0224,0.0223,0.0267,0,0,0,0,0,0,0.0272,0.028,0.0291,0.0304,0.031,0.0348,0.0338,0.034,0.0358,0.0359,0.0345,0.0341,0.0322,0.0308,0.0303,0.0297,0.0297,0.0227,0.0225,0.0223,0.0267,0.0267,0.0268,0,0,0,0,0,0.0269,0.029,0.0292,0.0298,0.0326,0.0349,0.0351,0.0359,0.0358,0.0372,0.0353,0.0342,0.0292,0.0307,0.0301,0.0294,0.0228,0.0225,0.0223,0.0267,0.0267,0.0268,0,0,0,0,0,0,0.0256,0.0293,0.0296,0.0324,0.0341,0.0352,0.0368,0.0369,0.0366,0.0369,0.0341,0.0335,0.0318,0.0296,0.0313,0.0261,0.0254,0.025,0.0288,0.0289,0.0289,0.0307,0.0296,0,0,0,0,0,0.0259,0.0289,0.0312,0.0333,0.0349,0.0359,0.0369,0.0379,0.0378,0.0379,0.036,0.0332,0.0301,0.0291,0.0264,0.0246,0.0208,0.0231,0.0232,0.0233,0.0241,0.0163,0.0158,0.0215,0.0215,0.0215,0,0,0.0254,0.0282,0.0294,0.0333,0.0349,0.0375,0.0367,0.0397,0.0398,0.0373,0.0365,0.0338,0.0295,0.0272,0.026,0.0258,0.0197,0.023,0.0231,0.0239,0.0161,0.0155,0.015,0.0213,0.0214,0.0214,0,0,0.027,0.0293,0.0327,0.035,0.0389,0.0396,0.041,0.0427,0.0417,0.0412,0.0378,0.0351,0.0318,0.0278,0.0253,0.0238,0.0202,0.0227,0.0248,0.0173,0.0168,0.0163,0.0116,0.0106,0.0227,0.0228,0.0228,0,0.0261,0.0312,0.0336,0.0377,0.0393,0.041,0.0439,0.0433,0.0433,0.0417,0.0417,0.0344,0.0316,0.0263,0.0261,0.024,0.0203,0.0256,0.0175,0.017,0.0164,0.0116,0.0105,0.0229,0.0229,0.0229,0.0229,0,0.0306,0.0345,0.0371,0.0425,0.044,0.0476,0.0476,0.0483,0.0475,0.0455,0.0411,0.0363,0.0321,0.0299,0.0283,0.0223,0.0212,0.0187,0.0181,0.0161,0.0112,0.0099,0.0232,0.0231,0.0231,0.023,0,0,0.0295,0.0384,0.0395,0.0426,0.0472,0.0492,0.0497,0.0498,0.0493,0.0468,0.0435,0.0379,0.0355,0.0325,0.0283,0.0226,0.016,0.0203,0.0198,0.017,0.0013,0.0059,0.005,0.0122,0.012,0.0118,-0.0002,0,0.0325,0.0405,0.0434,0.0491,0.0529,0.0542,0.0538,0.0533,0.0514,0.0484,0.0419,0.0377,0.0359,0.034,0.0279,0.0183,0.0129,0.0196,0.0025,0.002,0.0074,0.0038,0.0111,-0.0011,-0.0014,-0.0016,-0.0018,0,0.0365,0.0414,0.0478,0.0528,0.0543,0.0574,0.0582,0.0582,0.054,0.0514,0.0469,0.0416,0.0334,0.0318,0.0155,0.0201,0.0121,0.0049,0.0042,0.0064,0.0044,0.0007,-0.004,-0.0039,-0.0037,-0.0035,-0.0034,0,0.036,0.0442,0.0492,0.0515,0.0571,0.0594,0.0619,0.0601,0.0593,0.054,0.0527,0.0414,0.0366,0.0239,0.0122,0.0127,-0.0056,-0.0081,-0.0116,-0.0114,-0.0137,-0.0131,-0.0197,-0.0197,-0.0197,-0.0197,-0.0196,0,0.0387,0.0432,0.0507,0.0544,0.059,0.0616,0.0647,0.0649,0.0634,0.0625,0.0551,0.051,0.0345,0.0233,0.0114,-0.0025,-0.0069,-0.0114,-0.0147,-0.0115,-0.0105,-0.0145,-0.0137,-0.0201,-0.02,-0.0199,-0.0199,0,0.039,0.044,0.0503,0.0573,0.0602,0.0638,0.0701,0.0715,0.07,0.0689,0.0676,0.0567,0.0425,0.0271,0.0058,-0.0021,-0.0173,-0.0208,-0.014,-0.0167,-0.0181,-0.017,-0.0281,-0.0281,-0.028,-0.028,-0.028,0,0.0404,0.044,0.0528,0.0569,0.0619,0.0681,0.0724,0.0746,0.0761,0.0723,0.0712,0.0595,0.0508,0.0248,0.0079,-0.0148,-0.0167,-0.0242,-0.0227,-0.0171,-0.0193,-0.0183,-0.0172,-0.0279,-0.0279,-0.0279,-0.0279,0,0.0422,0.0453,0.0507,0.0589,0.0658,0.0712,0.0782,0.0794,0.0809,0.0801,0.074,0.0618,0.0466,0.0262,0.0106,-0.0061,-0.02,-0.0238,-0.024,-0.0228,-0.017,-0.019,-0.018,-0.0277,-0.0277,-0.0277,-0.0278,0,0.0432,0.0459,0.0531,0.0607,0.0677,0.0726,0.0761,0.0795,0.081,0.0791,0.0767,0.0615,0.0527,0.0307,0.0148,0.0006,-0.0038,-0.0087,-0.0098,-0.0102,-0.0003,0.0099,0.0042,0,0,0,0,0,0.0444,0.0483,0.0544,0.0618,0.0684,0.0727,0.0789,0.0813,0.0838,0.0811,0.0797,0.0665,0.0448,0.0339,0.0203,0.0133,-0.0079,-0.0032,-0.0145,-0.0269,-0.027,-0.018,0,0,0,0,0,0,0.0443,0.0508,0.0541,0.062,0.0667,0.0732,0.077,0.0788,0.0773,0.0781,0.0664,0.0639,0.0416,0.0528,0.0201,0.0157,0.0069,-0.0127,-0.013,-0.0268,-0.0269,-0.0271,-0.0178,0,0,0,0,0]}]]